Regional Weather Roundup
Issued by NWS

Home | Current Version | Previous Version | Graphics & Text | Print | Product List | Glossary On
Versions: 1 2 3 4 5 6 7 8 9 10 11 12 13 14 15 16 17 18 19 20 21 22 23 24 25 26 27 28 29 30 31 32 33 34 35 36 37 38 39 40 41 42 43 44 45 46 47 48 49 50
000
ASUS45 KBOI 251710
RWRID

IDAHO REGIONAL WEATHER ROUNDUP
NATIONAL WEATHER SERVICE BOISE ID
1100 AM MDT TUE APR 25 2017

NOTE: "FAIR" INDICATES FEW OR NO CLOUDS BELOW 12000 FEET
WITH NO SIGNIFICANT WEATHER AND/OR OBSTRUCTIONS TO VISIBILITY

IDZ012-014-251800-
SOUTHWEST IDAHO


CITY           SKY/WX    TMP DP  RH WIND       PRES   REMARKS
BOISE          MOSUNNY   49  36  61 N17       29.94R
CALDWELL       SUNNY     51  36  56 W13       29.95S
MOUNTAIN HOME  MOSUNNY   50  33  52 NW20      29.93R
$$

IDZ016-017-251800-
SOUTHCENTRAL IDAHO


CITY           SKY/WX    TMP DP  RH WIND       PRES   REMARKS
BURLEY         MOSUNNY   44  32  62 W23G36    29.85R
JEROME         PTSUNNY   46  33  60 W24G36    29.88R
TWIN FALLS     MOSUNNY   46  33  60 W28G35    29.89R
$$

IDZ019>023-251800-
SOUTHEAST IDAHO


CITY           SKY/WX    TMP DP  RH WIND       PRES   REMARKS
IDAHO FALLS    CLOUDY    42  38  85 NW15      29.79R
POCATELLO      LGT RAIN  40  38  93 W17       29.85R WCI  31
REXBURG        LGT RAIN  41  36  82 N9        29.77R
$$

IDZ006-010-011-018-031-032-251800-
CENTRAL IDAHO MOUNTAINS


CITY           SKY/WX    TMP DP  RH WIND       PRES   REMARKS
MCCALL         PTSUNNY   41  32  70 W3        29.86F
HAILEY         MOSUNNY   48  21  34 NW12      29.82R
STANLEY          N/A     39  25  57 N5        29.87R
SALMON         CLOUDY    46  34  61 CALM      29.84S
CHALLIS        CLOUDY    47  27  45 NE12      29.84R
$$

IDZ002-004-006-007-026-251800-
NORTHERN IDAHO


CITY           SKY/WX    TMP DP  RH WIND       PRES   REMARKS
LEWISTON       CLOUDY    52  42  69 CALM      29.91S
LOWELL           N/A     48  44  86 CALM      29.94F
COEUR D`ALENE  CLOUDY    46  41  82 W13       29.89R
MULLAN PASS    SNOW      31  31 100 VRB6      29.83R VSB 1/4 WCI  25
$$



USA.gov is the U.S. government's official web portal to all federal, state and local government web resources and services.